CST,Max TemperatureF,Mean TemperatureF,Min TemperatureF,Max Dew PointF,MeanDew PointF,Min DewpointF,Max Humidity, Mean Humidity, Min Humidity, Max Sea Level PressureIn, Mean Sea Level PressureIn, Min Sea Level PressureIn, Max VisibilityMiles, Mean VisibilityMiles, Min VisibilityMiles, Max Wind SpeedMPH, Mean Wind SpeedMPH, Max Gust SpeedMPH,PrecipitationIn, CloudCover, Events, WindDirDegrees
2013-11-1,43,39,35,40,36,32,93,86,74,29.81,29.57,29.34,10,10,7,15,7,20,0.01,8,Rain,294
2013-11-2,45,34,23,35,29,22,96,77,47,30.11,29.99,29.81,10,10,10,9,3,,0.00,5,,332
2013-11-3,51,35,20,33,28,19,98,73,50,30.15,30.07,29.98,10,10,4,16,3,23,0.00,2,,149
2013-11-4,46,40,34,43,36,32,96,77,59,30.08,29.91,29.81,10,10,3,18,9,25,0.13,7,Rain,205
2013-11-5,41,34,28,31,28,24,94,76,51,30.22,30.14,30.05,10,10,10,15,7,20,0.00,3,,252
2013-11-6,37,30,23,30,23,18,97,73,48,30.14,30.05,30.00,10,10,2,16,4,22,0.00,3,Snow,310
2013-11-7,38,28,18,26,19,14,91,74,39,30.18,30.16,30.13,10,10,10,14,5,18,0.00,1,,257
2013-11-8,39,28,17,34,25,16,99,86,60,30.17,29.97,29.61,10,9,2,12,4,20,0.01,4,Rain-Snow,134
2013-11-9,39,36,33,34,32,30,100,86,75,30.10,29.79,29.58,10,9,3,17,8,29,0.02,8,Rain,281
2013-11-10,42,35,27,32,28,19,98,72,50,30.26,30.16,30.07,10,10,4,18,10,25,0.00,5,Rain-Snow,263
2013-11-11,26,20,13,19,8,5,72,59,41,30.70,30.45,30.15,10,10,10,17,11,25,0.00,3,,330
2013-11-12,30,20,10,11,7,2,84,58,31,30.73,30.59,30.36,10,10,10,17,8,21,0.00,0,,249
2013-11-13,47,32,18,31,22,12,80,63,43,30.34,29.96,29.77,10,10,10,24,11,31,0.00,0,,234
2013-11-14,46,38,30,33,32,29,94,79,60,29.79,29.76,29.71,10,10,10,9,5,,0.00,4,,233
2013-11-15,51,40,28,35,32,29,99,86,51,29.81,29.74,29.65,10,9,1,10,5,,0.00,2,,229
2013-11-16,47,44,41,42,39,34,99,84,71,29.63,29.44,29.28,10,7,2,14,9,21,0.23,7,Rain,161
2013-11-17,44,37,30,44,37,25,100,89,76,29.68,29.38,29.25,10,7,1,24,6,33,0.01,8,,286
2013-11-18,31,24,16,25,18,14,93,68,61,30.25,30.03,29.69,10,10,10,21,14,31,0.00,7,,309
2013-11-19,41,28,14,24,19,13,95,68,39,30.28,30.11,29.89,10,10,10,18,4,28,0.00,1,,147
2013-11-20,45,40,36,32,25,21,84,54,41,30.04,29.94,29.87,10,10,10,20,12,26,0.00,7,,199
2013-11-21,36,28,21,34,23,13,94,74,60,30.52,30.27,30.04,10,9,3,16,8,23,0.00,7,,310
2013-11-22,32,21,9,14,9,0,89,66,29,30.61,30.49,30.38,10,10,5,21,9,29,0.00,3,Snow,290
2013-11-23,17,10,2,3,-1,-4,80,61,40,30.79,30.72,30.62,10,10,10,13,7,20,0.00,1,,312
2013-11-24,31,16,0,17,6,-4,86,61,44,30.69,30.25,29.79,10,10,10,24,8,32,0.00,3,,218
2013-11-25,38,32,24,27,22,11,77,62,54,30.04,29.85,29.75,10,10,7,23,15,30,0.00,8,Snow,270
2013-11-26,23,16,10,16,4,0,83,60,47,30.37,30.20,30.02,10,10,2,22,12,32,0.00,3,Snow,321
2013-11-27,22,12,2,18,10,-1,93,82,62,30.36,30.25,30.11,10,8,2,7,3,,0.03,4,Snow,245
2013-11-28,25,16,7,17,14,5,94,82,64,30.51,30.29,30.10,10,10,3,12,3,,0.03,6,Snow,297
2013-11-29,27,14,0,20,10,-3,92,80,65,30.53,30.39,30.14,10,10,10,9,3,,0.00,4,,188
2013-11-30,35,26,17,24,22,16,95,75,61,30.17,30.08,30.03,10,10,7,9,3,,0.00,4,,313